Wind_Speed
48 45 43 43 45 45 45 46 46 47 48 49 50 50 51 52 52 52 53 53 55 56 58 59 60 60 59 58 57 55 53 52 51 49 47 44 42 43 44 46 47 48 49 48 49 51 52 53 52 51 48 46 45 44 43 42 41 41 42 43 43 43 44 45 46 47 48 49 51 52 53 53 54 54 55 55 55 54 53 52 52 52 52 52 53
46 45 46 48 49 48 47 48 48 48 49 50 50 51 51 52 53 53 53 54 55 57 58 59 60 59 58 57 56 55 54 53 52 51 50 48 46 46 48 49 50 51 52 52 54 57 58 56 54 52 50 48 48 47 47 45 43 42 43 44 44 45 45 45 46 47 48 49 49 50 52 53 54 54 55 55 55 54 54 53 52 52 52 52 52
47 46 46 48 49 49 47 46 46 47 48 50 51 52 52 52 52 52 52 53 55 56 57 58 58 57 57 57 56 55 55 54 53 52 52 50 49 49 50 52 52 52 53 54 57 59 60 58 55 53 51 50 50 50 49 47 45 44 44 44 45 46 46 45 46 47 48 49 48 48 49 51 52 52 53 54 54 54 54 54 54 54 54 53 53
45 42 41 44 47 48 48 46 47 50 53 55 55 53 53 53 53 53 53 53 54 55 56 57 58 58 58 58 57 56 56 55 54 54 53 52 51 51 52 52 52 53 56 59 61 61 60 57 56 54 54 53 53 53 52 50 47 46 46 45 45 46 47 47 47 48 49 50 50 49 49 50 51 52 52 53 53 53 54 54 55 56 56 56 56
45 41 39 43 45 46 48 49 51 53 56 59 59 58 56 56 56 55 54 55 56 56 57 58 59 60 60 60 59 59 58 58 57 57 56 55 54 54 53 54 55 58 61 63 64 63 61 58 56 55 56 56 56 55 54 52 50 48 48 47 45 45 47 48 49 49 49 50 51 51 51 52 53 54 55 54 54 54 54 54 55 56 56 57 57
47 41 37 37 39 42 46 50 51 51 52 56 59 60 59 58 57 57 56 56 57 58 59 59 60 61 61 61 61 61 61 61 62 61 60 60 60 60 60 61 63 65 67 66 64 63 61 59 58 56 56 57 57 56 55 54 51 50 49 47 45 45 46 48 50 50 50 50 51 52 53 54 54 56 57 57 56 56 56 56 56 56 56 57 57
45 43 43 43 42 41 42 44 43 41 42 46 51 55 57 57 58 58 59 59 59 59 60 60 61 62 63 63 63 63 64 64 65 65 64 64 65 65 66 68 70 70 70 68 65 64 62 60 59 59 59 58 57 56 55 53 50 48 48 49 48 47 46 47 49 50 50 51 52 53 54 54 55 56 57 57 57 57 57 57 57 57 57 57 57
49 48 49 50 46 42 41 42 40 36 36 41 46 50 53 54 56 58 59 61 62 63 63 63 63 63 64 64 64 65 66 67 67 68 68 68 69 69 70 72 72 71 70 68 66 65 64 62 60 59 59 59 58 56 53 50 48 47 48 50 51 49 47 47 48 49 50 51 53 55 56 56 57 57 57 57 56 57 57 57 57 57 57 57 57
48 47 47 48 46 43 42 44 44 42 42 45 48 51 54 57 60 62 63 64 64 64 63 63 63 62 63 63 64 65 66 67 68 69 70 70 70 71 71 72 72 71 70 69 69 67 65 62 60 59 60 60 58 55 52 50 49 49 49 50 50 48 47 47 48 49 50 51 51 53 55 57 58 58 57 56 55 54 54 54 54 55 55 56 56
46 44 45 47 48 47 45 44 46 47 51 55 58 58 59 61 63 65 66 67 67 66 64 63 63 62 61 61 62 64 65 66 68 69 70 70 70 70 71 71 72 71 71 71 69 68 66 64 63 62 61 60 57 54 53 53 52 52 52 50 48 47 47 47 48 49 50 50 49 50 51 52 53 53 53 53 52 52 51 50 50 51 52 53 54
59 58 55 50 48 50 52 52 52 54 57 61 62 61 59 59 61 63 65 66 67 67 66 66 66 66 65 65 66 67 68 69 70 70 70 70 71 71 71 71 71 71 71 70 68 67 67 66 64 62 59 57 55 55 56 56 56 55 54 52 50 48 47 47 48 49 49 48 47 47 47 48 49 50 51 51 50 49 48 48 48 49 52 53 55
68 67 65 62 59 58 59 61 61 63 63 62 62 60 57 57 59 61 62 65 66 67 67 68 69 70 71 72 73 73 73 73 73 73 72 71 71 71 71 71 70 69 68 66 65 65 64 63 63 61 60 59 59 59 59 59 60 58 55 52 52 51 48 47 47 49 49 48 46 46 47 48 50 52 53 53 52 51 51 52 53 54 55 55 55
70 69 69 70 69 67 65 65 66 67 66 63 61 57 51 49 54 57 59 62 64 66 69 71 72 74 75 76 77 77 77 77 76 75 73 71 70 70 70 69 68 66 64 63 64 65 64 62 61 60 59 60 61 61 61 61 60 57 53 50 50 51 50 50 50 51 51 51 50 50 51 52 53 54 55 56 57 58 58 59 59 59 59 57 55
74 74 73 73 73 73 71 70 69 69 68 66 65 61 55 56 63 66 66 69 71 73 75 76 77 77 77 77 78 78 77 77 76 74 73 71 70 69 69 68 67 65 64 64 65 65 64 62 60 59 59 60 61 62 61 59 57 56 55 53 52 52 53 53 55 57 57 56 55 56 56 57 58 58 59 59 60 62 63 64 63 61 60 59 57
77 78 78 77 77 77 76 75 74 73 73 73 73 73 72 74 78 80 80 81 81 81 81 81 81 80 79 78 77 76 75 75 74 74 73 72 71 70 70 69 67 66 66 67 66 65 64 62 62 61 61 62 63 63 61 59 59 60 61 60 60 60 61 62 63 64 63 63 62 62 62 63 64 65 64 62 61 62 63 63 62 60 59 59 59
76 77 78 78 78 77 76 76 75 75 76 76 76 77 78 79 82 83 83 82 81 81 81 81 80 79 78 77 76 76 75 75 75 75 75 74 73 72 72 71 70 68 68 69 69 68 67 65 65 65 65 67 69 69 67 66 65 65 67 68 71 72 74 74 73 70 68 67 67 68 69 70 70 69 66 63 61 61 61 61 61 59 58 58 59
73 74 75 75 75 75 75 75 74 74 74 75 75 76 76 78 79 79 79 79 79 80 80 81 80 79 78 78 77 77 77 76 76 76 76 76 75 74 73 73 72 71 70 70 71 72 72 72 72 72 72 74 75 75 74 74 74 73 75 78 80 81 80 78 76 73 70 68 69 70 71 71 71 69 66 64 63 62 61 61 60 59 58 59 60
72 72 73 72 72 71 72 72 73 73 73 74 74 75 76 77 78 78 77 77 77 79 80 81 80 79 79 78 77 77 78 78 78 77 77 78 77 76 76 75 75 74 73 74 74 75 76 77 77 77 78 79 79 78 78 79 79 79 80 83 84 83 79 77 75 74 72 71 70 70 70 69 69 67 66 65 65 64 63 63 61 60 60 61 62
72 72 72 71 71 71 72 72 73 74 74 75 75 75 76 77 78 78 77 76 77 79 81 82 81 80 80 79 78 78 79 79 79 79 79 79 79 79 78 78 77 77 77 77 76 77 78 79 79 80 80 81 81 81 80 80 80 80 81 82 83 80 76 76 76 76 75 74 73 71 70 69 67 67 66 66 66 65 65 63 63 62 63 62 61
74 73 72 72 73 73 74 74 74 75 75 76 76 76 76 77 78 78 77 77 77 79 80 80 80 80 79 79 77 76 76 76 77 78 78 78 78 77 77 77 77 77 77 77 76 76 76 77 77 77 78 79 79 79 79 78 77 76 75 75 76 76 75 75 77 78 78 77 75 72 71 69 67 66 66 66 66 65 64 63 62 63 63 63 62
77 76 75 75 74 75 74 73 73 73 73 73 73 73 74 74 75 75 75 74 73 74 74 74 74 73 73 72 71 69 69 70 71 72 73 73 74 74 74 74 74 74 74 74 73 73 74 74 74 74 75 77 77 76 76 74 73 72 71 70 71 72 71 71 72 74 75 75 74 73 71 70 68 67 66 66 65 64 63 62 62 62 63 62 62
78 77 77 77 76 76 75 74 73 73 72 71 71 71 72 72 73 73 73 72 71 70 71 71 70 70 69 69 68 66 66 67 68 70 70 71 71 71 71 72 72 72 72 71 71 72 73 74 75 76 77 77 75 74 73 72 71 71 71 70 69 69 68 68 69 70 71 71 71 70 69 69 69 69 68 67 66 65 64 64 63 63 64 64 64
76 76 77 77 77 77 76 76 75 75 75 74 73 73 74 74 74 74 74 74 73 72 72 72 71 70 69 69 68 66 66 66 67 68 69 69 70 71 71 71 71 71 71 72 73 74 74 75 78 80 80 77 74 73 71 70 70 70 70 69 68 68 68 69 69 70 70 70 70 69 69 70 70 70 69 69 69 68 67 66 66 66 66 67 67
75 75 76 76 76 77 77 78 78 78 78 78 77 77 77 77 77 77 78 78 77 77 76 76 75 74 72 70 69 67 66 66 67 67 68 70 71 71 72 73 73 73 74 75 76 77 77 79 83 84 81 78 76 74 72 70 68 68 68 68 68 69 70 70 70 71 71 71 71 71 72 72 72 72 71 71 71 70 69 69 69 69 69 70 70
74 74 75 76 76 77 78 79 80 80 80 80 81 80 80 80 80 80 80 80 80 81 81 82 82 81 79 76 74 72 69 69 69 71 73 75 76 75 75 76 76 76 77 78 79 80 82 84 86 87 85 82 79 77 75 73 71 69 69 69 69 69 70 70 70 71 71 71 72 73 73 74 73 73 73 73 73 72 71 71 71 72 72 72 72
75 76 77 78 78 79 79 80 81 82 82 82 83 83 83 83 83 83 83 83 84 84 85 85 86 86 85 85 84 82 79 78 78 79 80 81 81 80 79 78 77 78 79 79 80 82 84 87 89 90 89 87 84 81 80 79 77 75 73 72 71 71 71 71 71 71 72 72 73 74 73 73 74 74 74 74 73 73 73 73 73 74 74 74 74
78 79 79 80 80 81 81 82 82 83 84 84 85 85 85 85 86 86 87 87 87 87 87 88 88 88 88 88 87 87 86 84 83 83 83 82 82 80 79 77 77 79 80 81 82 84 87 89 91 93 93 91 87 84 83 83 82 80 78 76 75 75 74 74 74 74 74 74 74 74 74 74 74 74 74 74 73 73 74 74 75 75 75 75 74
82 83 83 84 84 84 85 85 86 86 86 87 87 88 88 88 87 88 88 89 89 89 88 88 88 88 88 88 87 86 85 84 83 83 84 83 81 79 78 77 77 79 80 82 84 86 88 91 94 97 97 95 90 87 85 85 85 83 81 80 80 78 77 76 76 75 75 75 75 75 75 75 75 74 74 73 72 72 73 75 75 75 75 74 74
87 87 88 89 89 89 90 91 91 91 91 91 91 92 92 92 92 92 92 93 93 93 92 91 90 90 89 88 87 86 86 85 84 85 85 83 80 79 78 78 79 80 80 82 84 87 89 92 96 99 99 97 94 90 87 85 85 84 84 83 82 80 79 78 77 76 76 76 76 76 76 75 75 74 74 72 72 72 73 74 74 74 73 73 72
90 91 92 92 93 94 95 95 95 95 95 95 95 95 95 95 95 94 95 96 96 96 95 94 94 93 91 90 88 87 87 86 85 85 85 84 82 79 78 79 80 80 81 82 83 86 90 95 98 99 98 97 96 94 91 88 86 85 85 84 83 82 81 80 79 78 77 77 76 76 75 74 74 74 73 73 72 72 72 72 71 71 71 71 71
94 94 95 96 97 98 98 98 98 98 98 97 97 97 97 96 95 94 93 94 95 95 94 93 93 92 91 89 88 87 86 86 85 85 84 84 82 80 79 79 79 79 80 81 83 88 93 96 97 97 97 96 96 95 93 91 88 86 84 82 82 82 83 82 81 80 78 77 76 76 75 74 73 73 73 73 72 72 71 70 70 70 70 70 68
97 98 98 99 99 99 99 99 99 98 97 97 96 95 95 95 95 94 92 90 91 91 91 91 90 89 88 87 86 85 84 84 83 83 83 82 80 79 78 78 79 79 80 81 85 91 95 96 97 97 96 94 93 93 92 90 88 85 82 80 81 82 83 83 82 80 78 77 76 75 75 74 73 72 72 72 71 71 71 71 71 71 70 68 67
98 98 98 98 98 97 97 96 96 95 94 94 93 92 92 91 92 92 91 89 88 87 87 88 87 86 85 84 83 82 81 80 80 80 79 78 76 75 75 76 77 79 80 81 85 91 95 96 98 98 95 91 89 89 89 88 86 84 82 81 81 82 83 82 81 79 78 76 75 75 75 74 73 72 71 71 71 71 71 71 71 70 69 68 67
96 95 95 95 94 93 93 92 91 91 90 90 89 89 88 87 87 88 88 87 86 84 82 82 82 81 80 79 78 77 76 75 76 76 76 74 72 71 71 72 73 76 78 80 84 89 93 95 96 95 92 89 87 87 87 87 85 83 81 81 81 82 82 81 80 79 78 77 76 75 75 74 73 72 72 72 72 72 71 70 70 69 69 68 68
91 91 90 90 89 89 88 88 87 86 86 85 84 84 83 82 82 81 81 81 81 79 78 76 76 75 75 74 72 71 71 71 73 74 73 70 68 68 68 69 70 73 76 78 81 85 88 89 90 90 88 87 85 85 86 84 81 77 76 76 77 78 79 79 78 77 77 76 76 75 75 74 74 74 73 74 73 72 71 70 68 68 68 68 67
84 84 83 83 83 83 82 82 82 81 80 80 79 78 78 77 76 76 75 75 74 74 73 71 70 70 70 68 66 65 66 67 69 70 68 65 64 64 65 66 68 70 72 75 77 79 81 83 85 85 84 82 81 81 80 78 75 73 72 71 71 72 72 73 73 73 73 73 72 73 73 74 74 74 74 74 73 71 69 68 67 67 66 65 64
75 75 75 75 75 75 75 75 75 75 74 74 73 73 72 71 71 70 69 68 67 67 67 66 65 65 65 63 61 61 62 63 65 66 64 61 61 61 62 63 65 66 68 71 73 75 77 78 80 80 78 76 75 74 72 71 72 71 69 67 65 64 63 64 64 65 65 65 66 67 69 71 72 73 73 72 70 68 66 65 65 64 63 62 60
68 68 68 68 68 68 68 68 68 68 68 68 67 67 66 66 65 64 63 62 62 61 61 61 61 60 60 59 58 58 59 60 60 60 59 58 59 59 60 60 62 64 66 68 70 72 73 73 74 75 74 71 70 69 67 68 69 68 65 62 60 58 57 57 57 57 57 58 59 61 63 65 67 67 67 66 65 64 63 62 61 60 59 57 55
64 63 63 63 63 63 63 63 63 63 63 63 63 62 61 60 60 59 58 58 57 57 57 56 56 55 55 55 54 55 55 55 55 56 56 56 56 56 57 58 59 61 63 65 66 67 67 67 69 70 68 66 66 65 65 66 66 64 61 59 57 56 55 54 53 52 52 53 54 55 57 58 59 60 60 60 59 58 57 56 56 55 53 51 48
60 60 60 60 60 60 59 59 59 59 59 59 59 58 57 56 56 55 55 55 54 54 53 52 51 51 51 51 51 51 52 51 51 51 51 52 52 53 55 55 55 57 59 60 61 62 62 62 64 64 63 62 63 63 63 63 62 60 59 57 55 54 54 53 51 50 50 50 50 50 51 52 53 53 54 54 53 52 51 50 49 49 47 45 43
57 57 57 57 56 56 56 56 56 56 56 56 55 54 54 54 53 53 53 52 51 51 50 48 48 48 48 48 48 49 49 48 47 45 46 47 49 51 53 52 52 53 56 57 58 58 58 59 61 61 60 60 62 62 60 59 58 57 55 52 52 53 52 51 50 49 49 48 48 48 47 47 48 48 48 48 47 46 45 45 44 43 42 41 39
54 53 53 53 53 53 53 53 53 53 53 53 52 52 52 51 51 51 50 50 49 48 47 46 45 45 45 46 46 46 46 45 43 42 43 46 49 50 51 51 51 51 53 54 55 55 55 56 57 58 58 59 60 59 57 56 55 54 51 49 50 50 48 47 48 49 49 47 46 45 44 44 45 44 44 43 43 42 41 41 40 39 38 37 36
50 50 50 50 50 50 50 51 51 51 50 50 50 49 49 49 49 48 47 46 46 46 45 44 43 43 43 43 43 43 43 42 41 41 43 46 47 48 49 49 48 48 49 50 52 53 53 53 54 56 58 58 57 55 53 52 52 52 50 48 47 45 44 45 48 49 48 46 44 43 42 43 42 41 41 40 40 40 39 38 37 36 36 35 34
46 46 46 46 46 47 48 48 48 48 48 47 47 47 46 46 46 46 45 44 43 43 42 41 41 41 40 40 40 41 41 40 39 40 42 43 44 45 45 45 45 45 45 46 47 49 51 51 53 55 56 54 53 51 49 48 50 51 49 44 41 41 42 45 48 49 48 45 42 41 42 42 41 40 39 39 39 38 37 36 35 34 34 33 32
43 43 43 43 44 45 45 46 46 45 45 44 44 44 44 43 44 44 43 41 40 40 39 38 38 38 37 36 37 37 37 37 37 38 39 40 41 42 42 42 42 42 42 42 44 46 47 49 50 51 51 50 50 49 47 46 48 48 45 41 39 40 43 46 49 49 47 43 41 41 41 40 40 39 39 38 37 36 35 34 33 32 32 32 31
40 40 41 41 42 42 43 43 43 42 41 41 41 41 41 41 41 42 41 39 37 37 36 35 35 35 34 33 33 33 34 34 35 36 37 38 38 39 39 39 39 39 39 40 41 42 44 45 46 46 46 46 47 45 43 42 44 45 42 40 40 42 45 48 50 49 45 42 40 40 40 39 39 38 37 37 36 35 33 32 32 31 31 31 30
38 38 39 39 40 40 40 40 40 39 39 38 38 39 40 39 38 39 39 38 35 34 33 32 31 31 31 31 31 31 31 32 32 33 34 35 35 36 36 37 37 37 37 37 38 39 40 41 42 42 43 42 41 39 38 38 40 42 41 41 42 45 48 51 51 48 44 40 39 39 39 38 38 37 36 36 35 34 32 31 31 30 30 30 29
36 36 37 37 37 37 37 37 37 37 36 36 36 37 38 38 36 35 36 36 35 32 31 30 29 29 29 29 29 29 29 29 30 30 31 32 32 33 34 34 35 35 34 34 35 37 37 38 39 39 38 37 36 35 35 35 38 40 40 42 45 48 51 51 50 46 41 39 39 39 38 38 37 36 36 35 34 33 32 31 30 30 30 29 29
34 34 34 35 35 35 35 35 35 35 34 34 33 34 36 36 35 33 33 33 34 32 30 28 27 27 27 27 27 27 28 28 28 29 29 29 30 31 31 32 32 32 32 33 34 35 36 36 35 35 34 35 35 36 36 37 39 41 43 45 48 50 51 51 48 43 39 38 38 38 37 37 37 36 35 35 34 33 31 31 30 30 29 29 28
31 32 32 33 33 33 33 33 33 33 33 32 32 32 34 34 34 32 31 31 32 31 30 28 26 25 25 25 25 26 26 27 27 27 27 28 28 28 28 29 29 30 31 32 33 33 33 33 33 34 35 37 38 39 40 42 44 45 47 48 50 51 50 48 44 39 37 37 38 37 37 37 37 36 35 34 33 32 31 31 30 30 30 29 28
30 30 30 31 31 31 31 31 31 31 31 31 31 31 32 33 33 31 30 29 29 30 30 28 27 25 24 23 24 24 25 26 26 26 26 26 26 26 27 28 29 29 30 30 31 31 32 33 34 35 37 38 40 41 44 46 47 48 49 49 49 48 44 40 35 33 34 36 37 36 37 37 37 36 35 34 33 32 31 31 30 30 30 29 28
Wind_Direction
259 263 268 270 270 271 273 274 273 273 274 274 274 273 273 273 272 271 271 271 270 268 267 268 269 270 271 271 272 273 273 272 274 277 279 280 280 282 284 286 287 288 290 292 293 294 291 286 281 278 277 277 278 278 278 279 280 280 279 279 278 277 277 276 276 275 275 274 273 272 272 271 271 271 271 271 271 271 271 271 270 269 268 268 269
256 258 263 268 273 276 277 279 278 278 279 279 278 276 275 274 273 272 272 271 270 270 270 271 271 271 272 272 272 272 273 273 273 274 277 278 279 281 283 285 286 286 288 291 294 296 294 289 283 278 276 277 277 277 277 278 279 279 279 278 278 278 277 277 277 276 275 274 273 273 273 272 271 271 270 270 270 270 269 269 269 269 268 267 268
258 262 265 266 271 276 278 281 282 281 282 282 281 280 278 275 273 272 272 271 270 271 272 271 271 270 270 271 272 273 274 274 274 275 276 277 278 279 282 284 285 285 286 289 292 294 292 289 284 279 276 277 278 277 277 278 279 280 280 279 279 279 279 278 277 276 275 274 272 272 273 273 273 272 271 270 270 270 270 269 269 268 267 267 267
258 265 269 267 268 273 277 278 279 280 281 281 280 278 276 275 274 273 272 271 270 270 270 269 268 268 268 269 270 272 273 274 274 275 276 276 277 279 281 283 284 285 286 289 291 291 290 287 284 279 275 276 278 279 279 279 279 280 280 280 281 281 281 280 278 276 275 274 272 271 270 271 272 271 269 268 268 269 269 269 269 269 269 268 267
255 259 265 267 266 269 272 274 277 279 279 278 277 275 272 272 272 272 272 271 270 269 268 268 267 267 268 268 269 269 270 271 273 274 274 275 275 276 278 280 281 284 287 289 290 289 288 285 283 280 277 276 278 280 280 279 279 279 279 279 280 280 281 280 278 276 274 272 271 270 268 267 268 268 268 267 266 266 267 268 268 269 269 269 269
252 252 253 259 265 268 271 275 279 280 279 277 276 274 272 270 269 269 270 270 270 270 269 269 269 269 269 269 269 270 270 271 272 272 273 272 273 274 276 278 281 284 288 289 288 288 287 284 282 281 280 279 279 280 280 279 279 279 279 279 278 279 280 279 278 277 275 273 271 270 268 267 266 267 266 266 266 266 266 266 267 268 268 268 269
250 250 249 255 261 265 269 273 275 276 276 275 275 275 275 274 272 270 270 269 268 269 269 270 271 271 272 272 272 272 272 272 273 273 273 273 274 276 278 281 283 286 288 287 287 287 287 284 282 283 282 281 279 279 278 278 277 278 279 281 282 282 281 278 276 275 275 274 273 272 270 268 267 267 266 266 266 266 266 266 266 267 268 268 268
252 252 254 257 258 260 263 262 261 264 266 266 270 274 275 276 276 274 273 272 271 270 270 270 270 272 272 273 273 274 274 274 274 275 276 277 279 281 283 284 285 286 287 286 286 287 286 284 283 284 283 281 280 279 277 275 275 277 279 283 284 284 282 279 275 273 272 272 273 273 272 271 269 268 267 267 267 268 268 267 267 267 268 268 268
252 252 255 256 255 257 260 256 251 252 256 259 263 268 270 273 274 274 273 273 273 273 272 272 272 272 273 273 274 275 275 276 278 279 280 281 283 283 284 285 286 287 287 286 286 287 285 284 284 284 284 283 281 279 277 276 275 277 280 284 285 285 284 280 277 276 274 273 272 272 273 273 272 271 269 268 268 268 268 269 269 269 269 269 268
248 250 253 254 252 250 249 248 245 246 251 257 259 263 267 269 269 268 269 270 271 272 272 273 274 274 274 274 275 276 277 279 280 281 282 283 283 284 284 285 286 287 287 287 287 286 284 283 284 285 285 283 280 278 278 278 278 280 283 285 284 284 285 284 282 280 279 277 274 273 272 273 273 273 273 271 270 269 269 270 271 272 273 273 271
251 252 252 251 247 242 240 243 246 248 252 257 260 263 265 264 262 263 265 267 269 271 272 273 274 275 275 275 276 277 279 280 281 282 283 283 283 283 284 284 285 285 286 286 285 284 283 284 284 285 284 281 278 278 279 279 280 283 286 285 283 283 284 284 284 283 281 279 275 273 272 273 274 275 277 276 273 271 272 272 274 277 279 279 276
252 252 252 251 249 247 245 244 247 252 256 259 262 264 265 264 263 263 264 266 268 270 271 272 274 275 276 276 277 277 278 278 279 280 281 282 282 282 282 282 282 282 283 282 281 281 282 283 283 283 280 278 277 278 279 280 282 284 285 284 283 283 283 283 283 283 281 279 276 273 273 274 276 278 280 278 276 275 275 276 278 281 282 282 280
252 252 252 252 252 252 251 248 249 254 258 259 260 262 264 266 265 263 263 265 267 269 270 272 273 274 275 276 277 277 277 278 278 278 278 278 279 280 280 280 280 280 279 278 278 280 280 280 280 280 278 278 279 281 282 283 284 285 285 284 282 282 283 284 285 285 282 279 276 275 274 276 278 280 281 280 278 278 278 279 281 283 282 281 280
253 253 254 254 255 255 254 252 251 253 255 255 255 255 256 260 264 265 266 267 269 270 271 271 272 272 273 274 275 275 276 277 277 277 277 277 277 277 278 278 278 277 276 275 276 277 278 277 276 275 275 276 279 281 283 283 282 282 282 281 280 280 281 283 285 287 285 281 278 277 278 279 280 281 282 280 278 277 278 279 280 281 280 279 278
253 254 255 256 256 257 257 256 254 253 254 254 254 254 253 255 260 263 265 267 269 270 270 271 271 271 271 272 273 273 274 275 275 276 276 276 276 276 276 276 275 275 274 274 274 275 275 274 272 271 272 273 275 277 277 277 277 277 278 278 278 278 279 281 282 284 283 281 279 280 280 281 282 283 283 281 278 276 276 277 277 277 277 277 276
254 255 255 255 256 256 257 257 256 256 256 255 256 256 256 257 259 261 264 265 267 268 269 269 269 269 270 270 271 271 272 273 274 274 275 275 275 275 275 275 275 274 274 274 274 274 273 271 269 268 269 270 271 272 272 271 272 273 275 277 278 279 280 281 281 281 281 279 277 277 278 280 282 283 284 283 281 278 277 277 276 276 275 275 275
255 254 255 255 255 256 256 257 258 258 258 258 258 259 259 260 260 261 263 264 265 266 267 267 267 267 268 268 269 269 270 271 271 272 273 273 273 273 273 273 274 273 273 273 273 273 273 272 270 269 269 269 270 270 270 270 270 271 274 276 278 279 280 281 281 282 281 279 277 276 277 280 282 284 284 284 283 282 281 280 279 278 277 276 275
256 257 257 257 257 258 258 259 260 260 260 260 260 260 260 261 261 262 263 264 265 265 266 266 266 267 267 267 268 268 269 269 270 270 270 271 271 271 271 271 271 271 271 270 270 271 271 271 271 271 270 270 270 270 270 270 270 271 273 275 277 278 280 281 281 281 282 280 279 278 279 281 283 284 284 284 284 283 283 282 281 280 278 276 275
258 258 259 259 260 259 259 260 260 261 261 261 261 261 262 263 263 263 264 264 264 265 266 267 268 268 268 268 268 269 269 269 269 269 269 269 269 269 269 269 269 269 269 269 269 269 269 270 270 270 270 270 270 270 270 270 270 271 272 273 275 277 279 280 279 280 280 280 279 279 280 282 283 284 284 284 284 283 283 282 282 281 280 279 277
263 262 262 262 262 261 261 260 260 260 261 262 262 263 263 264 264 264 264 264 264 265 266 267 268 268 269 269 269 268 268 268 268 268 268 268 267 267 268 268 268 268 268 268 268 268 268 268 268 268 268 268 269 269 270 270 271 271 272 273 274 276 278 278 277 277 277 278 278 279 280 281 282 282 282 282 282 282 282 282 282 281 281 281 280
268 268 268 268 267 266 266 265 264 264 264 264 265 265 265 264 264 264 264 263 263 263 264 264 265 265 266 265 265 265 265 266 266 267 267 267 266 266 266 267 267 268 268 269 269 269 269 268 268 267 267 266 267 267 269 271 272 272 273 274 274 275 276 276 275 275 275 276 277 278 279 279 280 281 281 280 280 281 281 281 281 281 281 281 280
269 270 271 272 272 272 272 272 272 271 271 270 270 270 270 269 268 268 267 265 264 264 263 263 262 261 260 260 259 259 261 262 264 265 266 266 267 267 267 267 267 268 269 270 270 270 270 271 271 269 267 266 266 267 269 270 271 272 272 273 273 273 273 273 274 275 275 276 276 276 277 278 278 279 279 279 280 280 280 280 280 280 280 280 280
270 270 271 272 274 274 275 275 275 275 275 275 275 275 275 275 274 274 274 273 272 271 269 268 266 264 262 260 258 258 258 260 263 265 267 268 269 269 270 270 270 271 272 272 272 272 272 273 273 271 270 269 268 268 268 268 269 270 271 272 271 272 272 273 273 274 275 276 276 276 276 277 277 278 279 279 279 279 280 280 280 280 280 280 280
269 271 271 272 273 274 275 275 276 276 276 276 277 276 276 277 277 277 277 277 277 277 277 276 275 273 271 268 265 263 262 262 264 266 269 270 271 271 272 273 273 273 273 274 274 274 274 274 273 273 273 273 272 270 269 268 267 268 269 270 270 271 272 272 273 274 275 275 276 276 277 277 278 278 279 279 279 280 280 281 281 281 281 281 281
268 269 270 270 271 272 272 273 274 274 275 275 275 276 276 276 276 276 277 277 277 278 278 278 278 278 278 277 275 273 271 270 270 271 273 273 273 273 273 274 274 274 274 273 274 274 274 274 274 274 275 274 273 273 273 272 271 270 270 270 270 271 271 272 273 273 274 274 275 276 276 277 278 278 278 279 279 280 280 281 281 281 282 282 283
268 269 269 269 270 270 270 271 271 272 272 272 273 273 273 273 273 274 274 274 274 274 274 275 276 276 277 277 277 276 276 275 274 274 273 273 272 272 271 271 272 272 272 271 271 272 272 272 273 273 274 274 274 274 274 275 274 274 274 273 273 272 272 272 273 273 274 274 275 275 276 277 277 278 278 279 280 280 281 281 281 282 282 283 283
269 269 269 269 270 270 270 270 270 270 270 269 269 270 270 270 270 270 270 271 271 271 271 271 272 272 273 273 273 273 273 273 272 272 270 269 268 268 268 268 269 270 270 270 271 271 271 271 271 271 271 272 272 273 273 273 274 274 275 274 274 274 274 274 274 274 274 274 275 276 276 277 277 277 278 278 279 280 281 281 281 281 282 283 284
272 273 273 273 273 273 273 273 273 273 273 272 272 272 272 272 272 272 272 272 272 272 272 272 272 272 272 272 272 273 273 273 273 272 271 269 268 269 269 269 268 268 269 270 271 271 271 271 272 271 271 272 271 271 271 271 272 273 274 274 274 274 274 274 274 274 275 275 276 276 276 276 276 277 277 278 278 279 279 280 280 281 282 283 284
273 273 274 274 274 275 275 275 275 275 275 275 275 275 275 276 276 276 276 276 276 276 276 276 275 275 275 274 274 274 274 274 274 273 272 271 270 270 270 270 269 268 268 268 269 270 270 270 270 270 271 273 273 273 272 272 272 273 274 274 275 275 275 275 275 275 275 275 275 275 275 276 276 277 277 278 278 278 278 279 280 281 282 283 284
271 272 272 272 273 273 273 273 274 274 274 275 275 275 275 275 275 275 275 275 275 276 276 276 276 275 275 275 275 274 274 274 273 272 271 271 270 269 269 268 267 267 267 266 267 267 267 267 267 268 270 272 273 274 274 273 273 273 273 274 275 276 277 277 276 276 276 275 275 276 276 276 277 277 278 279 279 279 279 280 281 281 282 283 284
270 270 270 271 271 271 272 272 273 273 274 274 275 275 275 275 275 274 274 274 274 274 274 274 274 274 274 274 274 273 273 272 272 271 270 269 269 268 267 266 266 265 265 265 266 265 264 264 265 266 267 268 270 271 272 273 273 273 273 274 275 276 276 276 276 276 276 276 276 276 277 277 277 277 278 279 279 280 281 281 282 282 282 283 284
269 269 269 270 270 271 271 272 272 273 273 274 274 274 274 275 275 275 274 274 273 273 274 274 273 273 273 273 272 272 272 272 271 270 269 268 268 267 266 265 265 264 263 263 264 264 264 264 264 264 264 265 266 268 270 272 273 274 274 274 273 273 273 274 274 275 275 276 276 277 277 277 278 278 279 279 280 281 281 282 282 282 283 285 286
268 269 269 269 270 270 271 271 272 272 273 273 273 274 274 274 274 275 275 275 274 273 273 273 273 273 273 273 273 272 272 272 271 270 269 268 267 266 265 264 263 263 261 261 261 262 263 264 265 266 266 267 267 268 270 271 272 272 272 272 271 271 271 272 273 274 275 276 276 276 277 278 278 279 280 280 280 281 281 281 282 283 285 287 288
268 269 269 270 270 271 271 272 272 273 273 273 274 274 274 274 274 274 275 275 275 274 273 273 274 274 274 273 273 273 272 271 270 269 268 267 266 265 264 262 261 260 260 259 258 259 260 262 264 266 268 269 270 270 270 270 270 270 270 270 270 270 271 272 273 274 275 275 276 277 277 278 279 279 280 280 280 281 281 282 283 285 287 288 289
268 269 269 270 271 271 272 272 273 273 274 274 274 274 275 274 274 274 274 274 275 275 275 274 274 274 273 272 272 271 270 269 268 267 266 266 265 263 262 260 259 258 258 257 257 258 260 263 265 266 268 269 269 269 269 270 271 271 271 270 270 270 270 271 272 273 273 274 275 275 276 277 277 278 279 279 280 280 281 282 284 285 286 287 288
268 269 269 270 271 271 272 273 273 273 274 274 274 274 274 274 274 274 274 274 274 275 275 275 274 273 272 271 271 270 269 267 266 266 266 265 264 262 261 259 258 257 257 257 258 259 260 261 263 265 266 267 267 268 269 271 273 274 273 272 271 270 270 271 271 271 271 272 272 273 274 275 276 276 277 277 278 279 280 282 283 284 284 285 287
269 269 270 270 271 271 272 272 272 273 273 273 273 273 273 273 273 274 274 275 275 275 275 275 274 273 272 271 270 269 267 266 265 266 266 265 264 262 260 259 258 257 257 257 257 258 258 260 262 264 266 267 268 269 271 273 273 273 273 273 272 272 273 272 272 272 272 272 272 273 273 273 273 274 274 275 276 278 279 280 281 282 284 285 286
270 270 270 271 271 271 271 272 272 272 272 273 273 273 273 274 274 275 275 276 276 275 274 274 274 273 272 271 270 268 267 266 266 266 266 264 262 261 260 258 258 257 256 256 257 257 258 259 261 263 266 267 268 269 270 270 270 271 273 274 275 276 275 274 273 273 273 272 271 270 270 270 270 271 272 274 275 277 278 279 280 282 283 284 285
271 271 271 271 271 272 272 272 272 273 273 273 274 274 275 276 276 277 277 277 276 275 274 274 274 273 272 272 270 268 267 266 265 264 264 262 261 260 258 257 256 256 255 256 257 258 260 261 262 264 266 267 268 269 268 268 269 271 273 274 275 275 275 273 272 272 271 270 269 269 269 269 270 271 272 273 275 276 277 278 279 280 281 282 282
271 271 272 272 272 273 273 273 274 274 275 275 276 277 278 279 279 279 279 278 277 277 276 276 275 274 273 272 270 268 267 265 264 262 262 262 261 258 257 255 254 254 255 256 256 258 260 260 261 262 264 265 265 265 265 265 267 268 269 270 271 272 272 272 272 271 270 269 269 268 268 269 270 271 272 273 274 276 276 277 277 277 278 278 279
272 272 273 273 274 274 275 275 276 277 277 278 279 280 281 281 281 280 280 279 279 278 278 277 276 275 273 272 270 269 267 266 265 263 262 261 259 257 256 254 252 251 252 254 255 255 256 257 257 258 259 259 260 260 261 262 263 264 266 267 267 267 268 269 270 269 268 268 268 268 269 270 270 271 271 273 274 274 274 274 274 274 275 275 276
273 273 274 274 275 276 276 277 277 278 279 279 280 281 281 281 281 281 280 280 280 280 279 278 277 276 274 272 271 270 269 267 266 264 261 259 257 256 255 254 252 251 252 253 254 254 254 254 255 256 256 256 257 258 259 260 261 262 263 263 263 264 265 267 267 267 266 266 267 268 269 269 269 270 271 271 271 271 271 271 271 272 273 274 275
273 274 274 275 275 276 276 277 278 279 280 281 281 282 282 281 281 281 281 281 281 281 280 279 277 276 274 273 271 270 268 267 265 262 259 258 257 257 257 256 255 253 252 252 253 254 254 254 253 254 255 256 257 258 258 259 260 260 260 260 260 262 263 263 263 263 264 264 265 266 267 267 268 269 269 269 268 269 269 269 270 271 272 273 273
273 274 274 275 275 276 277 277 278 279 280 281 281 282 281 281 281 281 281 281 281 280 280 279 277 275 273 272 271 269 268 267 264 262 260 259 259 259 259 258 258 256 254 253 252 253 253 253 252 252 254 257 258 258 257 256 257 257 258 259 259 260 260 259 260 260 261 262 264 264 265 266 266 266 266 266 267 267 268 269 270 271 272 272 272
273 273 274 275 275 276 277 278 279 280 280 281 281 281 281 281 281 281 281 281 281 280 279 278 277 276 274 272 270 269 268 267 264 262 261 260 259 259 259 258 257 256 254 253 251 251 251 251 251 252 254 256 256 256 255 254 254 256 257 258 257 256 256 256 257 258 259 260 261 262 263 263 264 264 264 265 266 267 268 269 270 270 270 271 271
273 274 274 275 275 276 277 278 279 280 280 281 281 281 280 280 281 281 281 281 280 280 279 277 276 276 275 273 271 269 268 267 264 263 261 260 260 259 259 258 258 256 255 254 252 252 251 251 252 254 254 254 255 255 255 253 253 254 255 253 251 251 251 252 254 256 257 258 259 259 260 261 262 262 263 264 265 266 267 268 268 268 268 269 270
274 274 275 275 276 277 278 278 279 279 280 280 281 281 281 281 281 282 283 282 280 279 278 277 276 276 275 274 272 269 267 266 264 263 262 261 260 260 259 258 257 256 255 254 253 252 252 251 251 252 252 253 254 255 254 253 252 251 250 249 247 247 248 250 252 254 255 256 256 258 259 260 261 261 262 263 264 265 266 266 266 266 266 266 267
274 275 276 276 277 277 278 278 279 279 279 280 281 282 282 282 282 283 284 284 283 281 279 278 277 276 275 274 273 271 268 266 264 262 261 260 258 257 257 256 255 254 254 253 252 251 250 249 249 249 249 250 250 250 248 247 246 245 244 243 243 244 247 250 252 254 254 254 254 256 257 259 259 260 260 261 262 263 264 265 264 263 263 264 264
274 275 276 277 277 278 278 279 279 279 279 280 282 283 284 284 284 284 284 284 285 284 282 280 278 277 276 275 273 272 270 268 266 264 262 260 258 256 256 255 254 253 252 250 249 248 247 246 246 245 243 242 241 239 237 236 236 237 237 238 240 244 247 251 254 254 253 252 253 255 256 257 257 257 258 259 261 262 262 262 261 261 261 261 262
275 275 276 277 278 278 278 278 279 280 281 282 283 284 284 285 285 285 285 284 284 285 284 282 280 279 277 276 274 272 271 270 268 266 264 262 260 259 258 256 254 252 250 248 247 247 246 244 243 240 237 235 234 232 230 230 231 233 234 236 240 244 249 253 257 256 252 251 252 253 254 255 255 256 257 258 259 260 260 259 259 258 258 259 260
277 277 278 279 279 280 279 279 279 280 282 284 285 286 286 285 285 285 284 284 283 283 283 283 281 278 275 273 272 271 271 270 268 266 264 262 260 259 257 255 254 252 250 249 248 246 245 243 241 239 237 235 233 232 232 232 234 235 237 240 244 248 253 259 261 257 252 250 251 252 252 253 254 255 256 257 258 258 258 258 257 256 257 258 258
Height
10609 10610 10610 10609 10609 10608 10607 10606 10606 10605 10605 10605 10605 10606 10606 10604 10603 10601 10600 10600 10599 10599 10599 10599 10600 10600 10601 10602 10603 10604 10605 10606 10607 10607 10606 10606 10606 10605 10606 10607 10608 10608 10608 10608 10608 10608 10608 10607 10606 10605 10604 10602 10601 10600 10599 10598 10599 10598 10596 10595 10595 10595 10595 10594 10594 10593 10592 10592 10591 10590 10589 10589 10589 10588 10587 10587 10587 10587 10586 10586 10586 10586 10586 10586 10586
10605 10605 10605 10604 10602 10601 10601 10600 10600 10600 10599 10599 10600 10601 10601 10600 10597 10595 10595 10594 10593 10592 10593 10593 10594 10595 10595 10596 10596 10597 10598 10599 10600 10601 10600 10600 10600 10599 10600 10600 10601 10602 10602 10603 10603 10602 10601 10601 10600 10599 10598 10597 10595 10594 10592 10593 10593 10593 10591 10589 10588 10587 10588 10588 10587 10586 10585 10584 10584 10583 10583 10582 10582 10582 10581 10580 10580 10579 10580 10580 10579 10579 10579 10580 10579
10601 10600 10600 10599 10597 10595 10595 10595 10594 10594 10593 10593 10594 10594 10595 10594 10592 10590 10589 10589 10587 10587 10588 10588 10588 10589 10589 10589 10590 10590 10591 10592 10593 10593 10593 10593 10593 10593 10593 10593 10594 10594 10595 10596 10596 10596 10595 10594 10593 10593 10592 10591 10589 10587 10586 10586 10587 10586 10585 10583 10582 10580 10580 10581 10581 10579 10578 10577 10577 10578 10576 10575 10574 10575 10574 10574 10573 10572 10572 10573 10572 10571 10571 10572 10573
10596 10596 10594 10592 10592 10591 10590 10589 10588 10587 10587 10586 10587 10588 10588 10588 10587 10586 10585 10583 10583 10583 10583 10582 10582 10583 10583 10584 10584 10584 10584 10585 10585 10586 10586 10586 10585 10585 10585 10585 10586 10586 10587 10588 10589 10589 10588 10587 10586 10586 10585 10584 10583 10582 10580 10580 10581 10580 10578 10577 10577 10574 10573 10573 10573 10573 10571 10569 10569 10570 10570 10568 10566 10566 10566 10566 10566 10565 10565 10565 10564 10564 10563 10564 10564
10592 10593 10589 10586 10586 10586 10585 10584 10583 10581 10580 10578 10579 10581 10582 10583 10582 10581 10580 10578 10577 10577 10577 10576 10576 10576 10577 10579 10579 10580 10579 10579 10579 10579 10579 10579 10578 10578 10578 10578 10578 10579 10580 10580 10581 10580 10580 10580 10579 10578 10578 10578 10579 10577 10574 10573 10573 10572 10571 10571 10572 10570 10568 10565 10564 10564 10565 10563 10562 10562 10562 10561 10560 10558 10557 10558 10558 10558 10558 10557 10557 10556 10556 10556 10556
10587 10587 10584 10581 10581 10582 10581 10580 10578 10575 10572 10571 10570 10572 10575 10576 10576 10576 10575 10573 10571 10570 10570 10570 10570 10571 10572 10573 10574 10574 10574 10574 10573 10572 10572 10572 10571 10571 10572 10571 10571 10572 10572 10573 10573 10572 10572 10571 10570 10570 10571 10571 10572 10570 10567 10566 10565 10564 10562 10563 10564 10566 10564 10560 10557 10556 10556 10556 10555 10554 10554 10553 10553 10551 10549 10549 10550 10551 10551 10550 10549 10549 10549 10549 10549
10581 10579 10576 10576 10577 10577 10578 10577 10574 10570 10568 10565 10564 10565 10567 10568 10568 10568 10568 10566 10565 10564 10564 10564 10565 10565 10566 10567 10568 10568 10568 10567 10566 10565 10565 10565 10565 10565 10565 10564 10564 10565 10565 10564 10564 10564 10562 10562 10562 10562 10562 10562 10563 10563 10561 10559 10558 10557 10555 10553 10554 10558 10558 10555 10552 10550 10549 10549 10547 10546 10546 10546 10545 10544 10542 10542 10543 10543 10543 10543 10542 10542 10541 10542 10542
10573 10570 10569 10571 10573 10573 10572 10570 10570 10570 10567 10562 10559 10560 10561 10561 10560 10559 10558 10557 10558 10558 10558 10559 10560 10560 10561 10561 10561 10561 10560 10559 10558 10557 10557 10558 10558 10558 10557 10556 10556 10556 10556 10556 10556 10556 10553 10553 10554 10555 10553 10552 10554 10554 10553 10552 10552 10551 10549 10547 10545 10547 10548 10547 10545 10544 10543 10543 10541 10539 10538 10537 10537 10536 10536 10536 10536 10535 10534 10535 10535 10535 10535 10535 10536
10565 10565 10566 10567 10568 10569 10565 10562 10565 10567 10563 10558 10555 10555 10555 10555 10554 10552 10551 10550 10551 10551 10552 10553 10554 10555 10555 10555 10554 10553 10552 10551 10550 10550 10550 10550 10550 10550 10549 10548 10548 10548 10548 10548 10549 10548 10546 10545 10546 10546 10545 10545 10546 10546 10544 10545 10545 10544 10543 10542 10539 10538 10539 10538 10537 10536 10536 10536 10536 10534 10532 10530 10529 10528 10529 10530 10531 10530 10528 10528 10528 10528 10528 10529 10529
10560 10563 10563 10560 10561 10562 10558 10554 10558 10560 10556 10551 10550 10550 10550 10548 10546 10544 10543 10544 10545 10545 10545 10546 10547 10548 10549 10548 10547 10546 10546 10545 10544 10544 10543 10543 10543 10543 10542 10542 10541 10540 10541 10542 10542 10541 10539 10538 10537 10537 10537 10538 10538 10538 10536 10536 10537 10537 10536 10535 10534 10532 10531 10530 10530 10529 10528 10528 10528 10528 10527 10525 10523 10522 10523 10524 10525 10524 10523 10523 10523 10522 10522 10522 10522
10554 10557 10555 10552 10551 10552 10550 10548 10549 10549 10547 10545 10545 10545 10544 10541 10538 10536 10536 10537 10538 10538 10539 10539 10540 10541 10541 10541 10541 10540 10539 10539 10538 10537 10537 10536 10536 10536 10536 10536 10535 10535 10535 10536 10536 10533 10531 10530 10530 10530 10530 10530 10531 10530 10529 10527 10528 10528 10527 10527 10526 10526 10525 10524 10523 10522 10521 10521 10521 10520 10521 10520 10519 10517 10517 10518 10519 10518 10518 10518 10517 10516 10516 10514 10513
10546 10546 10545 10543 10542 10542 10542 10541 10540 10539 10538 10539 10539 10539 10537 10532 10529 10530 10530 10530 10531 10532 10532 10533 10533 10533 10533 10533 10533 10533 10533 10532 10532 10531 10531 10531 10530 10529 10529 10529 10529 10530 10530 10530 10529 10526 10524 10523 10524 10524 10524 10523 10522 10522 10521 10520 10519 10518 10518 10517 10516 10516 10517 10516 10516 10515 10515 10515 10514 10514 10514 10515 10514 10514 10512 10512 10512 10512 10511 10511 10511 10510 10509 10508 10506
10537 10536 10535 10534 10534 10534 10535 10535 10534 10532 10532 10532 10532 10531 10528 10523 10520 10522 10524 10525 10525 10526 10526 10526 10527 10527 10527 10526 10526 10526 10525 10525 10525 10524 10525 10525 10524 10523 10522 10522 10523 10525 10525 10524 10521 10519 10518 10518 10518 10517 10515 10514 10513 10513 10512 10511 10510 10509 10508 10508 10506 10506 10507 10507 10507 10508 10508 10508 10508 10507 10507 10508 10508 10508 10508 10507 10506 10505 10504 10504 10504 10503 10502 10501 10500
10527 10526 10526 10527 10527 10527 10528 10528 10529 10528 10526 10526 10525 10524 10522 10517 10513 10514 10517 10518 10519 10520 10519 10519 10520 10521 10521 10520 10519 10519 10518 10518 10517 10517 10517 10517 10517 10517 10516 10515 10516 10518 10518 10517 10515 10513 10512 10513 10513 10510 10508 10506 10505 10505 10503 10502 10502 10501 10500 10500 10498 10498 10498 10499 10499 10500 10500 10500 10500 10499 10500 10500 10501 10501 10501 10501 10500 10498 10497 10497 10496 10496 10494 10493 10492
10516 10516 10517 10518 10518 10518 10518 10519 10520 10520 10519 10518 10518 10518 10516 10513 10509 10508 10510 10511 10512 10512 10511 10511 10511 10512 10513 10513 10512 10511 10511 10511 10510 10510 10510 10510 10510 10510 10508 10508 10510 10511 10511 10509 10508 10507 10506 10507 10506 10504 10503 10501 10500 10498 10497 10496 10495 10494 10493 10492 10491 10491 10491 10492 10492 10492 10492 10492 10492 10491 10490 10491 10491 10492 10492 10492 10492 10490 10489 10488 10488 10487 10487 10485 10483
10507 10507 10507 10508 10508 10509 10509 10508 10509 10510 10510 10510 10510 10510 10509 10507 10505 10504 10504 10504 10505 10503 10502 10501 10501 10502 10503 10504 10504 10503 10503 10503 10502 10502 10501 10502 10502 10502 10501 10500 10501 10503 10503 10501 10500 10499 10498 10498 10498 10497 10496 10494 10492 10492 10491 10490 10489 10488 10486 10485 10483 10483 10483 10483 10484 10485 10485 10484 10484 10483 10482 10481 10481 10482 10483 10482 10482 10481 10480 10479 10478 10478 10478 10476 10474
10496 10496 10497 10498 10500 10500 10500 10499 10499 10500 10500 10501 10501 10501 10500 10498 10497 10496 10496 10496 10495 10493 10491 10491 10491 10493 10494 10494 10495 10495 10494 10494 10495 10494 10493 10492 10493 10493 10492 10492 10492 10494 10495 10494 10491 10490 10489 10488 10488 10487 10487 10485 10482 10482 10482 10481 10481 10481 10479 10477 10475 10473 10474 10475 10475 10475 10475 10475 10475 10474 10473 10473 10472 10473 10473 10473 10472 10471 10470 10469 10468 10468 10468 10466 10463
10486 10486 10487 10489 10491 10492 10492 10491 10490 10490 10490 10490 10490 10489 10489 10488 10487 10487 10488 10488 10486 10483 10481 10480 10481 10482 10483 10484 10485 10485 10485 10484 10485 10486 10484 10483 10484 10483 10482 10483 10483 10484 10485 10485 10483 10482 10480 10477 10477 10477 10475 10473 10471 10471 10472 10471 10471 10472 10472 10470 10466 10464 10466 10467 10466 10465 10465 10465 10464 10464 10464 10464 10464 10464 10464 10463 10463 10461 10460 10458 10457 10457 10456 10454 10453
10476 10477 10478 10479 10481 10481 10481 10480 10480 10479 10479 10479 10479 10479 10478 10477 10477 10478 10479 10479 10477 10474 10472 10471 10472 10472 10472 10474 10475 10476 10475 10474 10474 10474 10474 10474 10474 10473 10473 10473 10474 10473 10474 10474 10474 10473 10471 10468 10466 10465 10463 10461 10460 10461 10461 10461 10461 10463 10463 10462 10458 10456 10458 10459 10457 10456 10455 10454 10454 10454 10455 10455 10455 10455 10455 10454 10453 10451 10449 10449 10448 10446 10445 10443 10442
10464 10465 10466 10467 10468 10469 10469 10469 10469 10469 10468 10468 10469 10469 10469 10467 10466 10467 10468 10469 10468 10466 10464 10463 10463 10463 10462 10463 10464 10465 10465 10464 10462 10463 10463 10464 10464 10464 10464 10464 10463 10462 10463 10463 10463 10463 10460 10458 10456 10454 10452 10451 10449 10449 10450 10450 10452 10453 10454 10453 10450 10449 10450 10450 10448 10447 10446 10445 10445 10445 10446 10446 10446 10446 10446 10445 10443 10441 10440 10440 10439 10436 10434 10433 10432
10451 10453 10453 10454 10455 10455 10456 10457 10457 10458 10458 10457 10457 10457 10456 10456 10455 10455 10455 10456 10457 10456 10455 10454 10454 10454 10453 10454 10455 10455 10455 10454 10453 10452 10453 10453 10454 10455 10455 10454 10453 10452 10452 10452 10452 10451 10448 10446 10445 10444 10442 10440 10439 10440 10441 10441 10443 10444 10445 10445 10443 10441 10441 10441 10439 10437 10436 10436 10436 10436 10437 10437 10437 10437 10436 10435 10434 10433 10432 10431 10429 10427 10425 10423 10422
10442 10442 10442 10442 10441 10442 10443 10443 10444 10444 10444 10444 10444 10443 10442 10442 10442 10441 10441 10442 10443 10443 10443 10442 10442 10442 10442 10443 10445 10447 10447 10446 10444 10443 10443 10443 10443 10443 10444 10443 10443 10442 10442 10441 10440 10438 10436 10434 10433 10431 10429 10429 10431 10433 10433 10433 10434 10435 10435 10435 10434 10433 10432 10432 10430 10429 10428 10428 10428 10428 10428 10428 10428 10427 10426 10425 10425 10424 10423 10422 10420 10417 10416 10414 10413
10432 10432 10432 10431 10430 10430 10430 10430 10431 10431 10430 10430 10430 10430 10429 10428 10428 10428 10427 10427 10428 10428 10428 10427 10427 10429 10429 10430 10433 10437 10439 10437 10436 10434 10434 10433 10431 10431 10431 10431 10431 10432 10431 10429 10426 10425 10425 10424 10419 10415 10415 10419 10422 10424 10424 10425 10426 10426 10426 10425 10424 10423 10423 10422 10421 10420 10420 10419 10420 10420 10419 10419 10418 10418 10418 10416 10415 10414 10413 10412 10409 10407 10406 10404 10402
10423 10423 10422 10422 10421 10420 10419 10419 10418 10418 10418 10418 10417 10417 10417 10416 10416 10416 10415 10415 10415 10414 10414 10412 10412 10413 10415 10416 10419 10424 10427 10426 10425 10424 10423 10421 10420 10421 10420 10419 10420 10421 10420 10417 10414 10412 10412 10409 10403 10401 10404 10408 10410 10411 10413 10414 10415 10416 10416 10415 10415 10414 10413 10412 10412 10411 10411 10411 10411 10410 10409 10409 10409 10409 10408 10407 10406 10404 10403 10401 10399 10397 10395 10393 10391
10415 10414 10413 10412 10412 10411 10410 10409 10408 10407 10407 10406 10406 10406 10406 10405 10405 10404 10403 10403 10403 10402 10401 10400 10398 10399 10401 10402 10404 10407 10411 10412 10412 10411 10411 10409 10408 10409 10409 10408 10409 10409 10408 10405 10402 10400 10397 10394 10390 10389 10392 10394 10396 10398 10400 10401 10403 10404 10404 10404 10405 10405 10404 10403 10402 10402 10402 10402 10401 10400 10399 10399 10398 10398 10397 10396 10395 10394 10392 10391 10389 10387 10385 10383 10381
10404 10403 10402 10401 10401 10400 10400 10399 10398 10397 10396 10395 10395 10395 10394 10394 10394 10393 10392 10392 10392 10391 10391 10390 10389 10388 10389 10389 10389 10391 10395 10398 10398 10398 10398 10397 10396 10397 10397 10398 10398 10396 10393 10392 10390 10387 10384 10380 10378 10377 10378 10379 10382 10385 10387 10387 10389 10390 10392 10393 10394 10394 10394 10394 10393 10393 10392 10391 10390 10390 10390 10390 10388 10387 10386 10385 10384 10383 10381 10379 10378 10376 10374 10373 10371
10391 10390 10389 10389 10388 10388 10387 10386 10385 10384 10383 10383 10382 10382 10382 10382 10382 10382 10381 10380 10379 10379 10379 10378 10378 10377 10377 10377 10378 10379 10381 10384 10385 10384 10383 10383 10384 10384 10385 10387 10387 10383 10379 10379 10378 10374 10370 10367 10365 10363 10364 10366 10370 10373 10374 10375 10376 10378 10380 10381 10381 10382 10383 10384 10384 10383 10382 10381 10381 10380 10380 10379 10378 10377 10375 10375 10375 10373 10371 10369 10367 10365 10363 10363 10361
10378 10376 10375 10375 10374 10374 10373 10372 10371 10370 10369 10369 10368 10368 10367 10368 10368 10368 10367 10365 10364 10364 10364 10364 10364 10363 10363 10364 10365 10366 10367 10369 10371 10369 10366 10367 10370 10372 10373 10375 10374 10371 10368 10368 10365 10360 10357 10354 10350 10347 10347 10350 10355 10360 10362 10363 10364 10366 10367 10368 10369 10370 10372 10372 10372 10372 10372 10371 10371 10370 10369 10368 10367 10366 10365 10365 10365 10364 10361 10359 10357 10355 10354 10353 10351
10365 10364 10363 10362 10361 10360 10358 10357 10357 10356 10356 10355 10355 10354 10354 10353 10353 10353 10352 10350 10349 10348 10349 10350 10349 10348 10348 10348 10349 10351 10352 10354 10355 10353 10351 10352 10356 10359 10361 10360 10359 10357 10357 10356 10352 10349 10346 10342 10336 10333 10334 10336 10339 10343 10348 10350 10352 10353 10353 10354 10356 10357 10359 10360 10361 10361 10361 10360 10360 10359 10358 10357 10356 10355 10355 10355 10355 10353 10351 10349 10347 10346 10345 10343 10342
10353 10352 10350 10349 10347 10345 10344 10343 10342 10342 10342 10342 10341 10340 10339 10338 10339 10340 10339 10336 10334 10333 10334 10335 10334 10333 10333 10334 10335 10336 10337 10338 10338 10337 10337 10338 10341 10344 10347 10346 10345 10343 10342 10342 10342 10338 10331 10326 10323 10323 10324 10326 10327 10328 10332 10335 10338 10339 10340 10342 10344 10345 10346 10347 10347 10348 10348 10348 10348 10347 10347 10346 10346 10345 10345 10344 10343 10342 10341 10339 10338 10337 10335 10334 10332
10340 10338 10336 10335 10333 10332 10330 10329 10329 10328 10328 10328 10327 10326 10324 10322 10321 10323 10325 10324 10320 10318 10318 10319 10319 10319 10319 10320 10321 10321 10322 10322 10322 10322 10322 10323 10325 10329 10331 10331 10331 10330 10328 10329 10329 10322 10314 10312 10314 10315 10315 10317 10317 10318 10319 10322 10324 10326 10329 10333 10334 10334 10334 10334 10333 10334 10335 10336 10336 10335 10335 10334 10335 10335 10334 10333 10332 10331 10330 10329 10328 10326 10325 10324 10323
10325 10323 10321 10320 10319 10318 10317 10316 10316 10315 10314 10314 10313 10312 10311 10308 10305 10304 10306 10308 10308 10305 10303 10302 10302 10304 10305 10305 10306 10306 10307 10307 10307 10306 10306 10307 10311 10315 10316 10316 10316 10315 10315 10316 10313 10305 10298 10299 10301 10302 10304 10307 10308 10308 10310 10311 10312 10314 10320 10324 10324 10322 10322 10321 10321 10322 10324 10324 10324 10324 10323 10323 10324 10324 10324 10323 10322 10321 10320 10319 10318 10316 10315 10314 10314
10310 10308 10307 10306 10306 10305 10305 10304 10303 10302 10301 10300 10299 10298 10297 10296 10294 10290 10288 10289 10291 10292 10290 10287 10287 10288 10289 10290 10290 10291 10292 10292 10292 10290 10289 10292 10296 10300 10301 10302 10301 10300 10300 10302 10299 10292 10287 10286 10286 10286 10290 10295 10298 10299 10301 10301 10302 10304 10308 10311 10311 10310 10309 10309 10310 10311 10312 10313 10313 10313 10313 10313 10313 10313 10313 10312 10312 10311 10310 10308 10307 10306 10305 10304 10303
10295 10294 10294 10293 10293 10292 10292 10291 10290 10289 10288 10287 10286 10285 10284 10283 10282 10279 10275 10273 10273 10275 10276 10275 10274 10274 10274 10275 10276 10277 10277 10277 10276 10274 10274 10277 10282 10285 10286 10287 10287 10285 10284 10285 10283 10279 10275 10274 10275 10277 10279 10282 10286 10288 10289 10289 10290 10293 10296 10299 10299 10299 10298 10298 10300 10301 10301 10302 10303 10303 10303 10303 10303 10303 10303 10302 10301 10300 10299 10299 10298 10297 10296 10295 10293
10281 10281 10281 10281 10280 10280 10279 10278 10277 10276 10275 10274 10273 10272 10270 10269 10268 10267 10265 10262 10260 10260 10261 10262 10262 10261 10260 10261 10262 10263 10263 10263 10261 10259 10260 10265 10269 10271 10272 10272 10272 10271 10269 10269 10269 10268 10267 10266 10267 10268 10269 10271 10274 10276 10275 10276 10279 10282 10285 10287 10289 10288 10288 10289 10291 10292 10292 10292 10293 10293 10293 10293 10293 10293 10293 10292 10291 10290 10290 10290 10290 10289 10287 10286 10285
10269 10269 10269 10269 10269 10268 10267 10266 10265 10264 10263 10262 10260 10259 10258 10257 10255 10254 10253 10253 10251 10250 10248 10248 10249 10248 10247 10247 10250 10251 10250 10249 10247 10245 10248 10253 10256 10257 10258 10258 10258 10258 10258 10257 10257 10258 10258 10257 10256 10256 10257 10260 10263 10264 10265 10267 10268 10270 10273 10275 10276 10277 10278 10279 10280 10281 10282 10283 10284 10285 10284 10284 10284 10283 10283 10282 10281 10281 10282 10282 10282 10281 10279 10278 10277
10258 10258 10258 10258 10257 10256 10255 10254 10253 10252 10251 10250 10248 10247 10246 10245 10244 10243 10243 10242 10242 10240 10238 10236 10236 10235 10234 10236 10239 10238 10237 10236 10235 10234 10238 10242 10244 10243 10244 10245 10245 10246 10247 10246 10246 10246 10247 10247 10247 10246 10247 10250 10253 10255 10257 10259 10259 10259 10261 10264 10265 10267 10268 10269 10269 10270 10271 10273 10275 10275 10275 10274 10273 10273 10273 10273 10273 10273 10274 10274 10273 10272 10271 10270 10270
10247 10247 10246 10246 10246 10245 10244 10243 10242 10241 10240 10238 10237 10236 10235 10234 10234 10234 10233 10232 10231 10229 10227 10226 10225 10224 10223 10225 10227 10226 10224 10225 10225 10225 10227 10230 10231 10231 10232 10233 10233 10234 10234 10234 10233 10234 10236 10238 10239 10238 10239 10242 10245 10247 10250 10250 10249 10250 10253 10255 10256 10258 10259 10259 10259 10260 10261 10262 10263 10263 10263 10263 10263 10263 10263 10264 10265 10265 10265 10265 10265 10264 10263 10263 10262
10236 10236 10235 10235 10234 10234 10233 10232 10231 10230 10229 10227 10226 10225 10225 10225 10224 10223 10223 10221 10219 10218 10216 10216 10215 10214 10213 10214 10215 10214 10213 10214 10215 10215 10215 10217 10219 10220 10220 10220 10221 10222 10222 10223 10224 10225 10228 10231 10231 10231 10233 10236 10238 10239 10241 10241 10241 10243 10245 10246 10247 10248 10249 10249 10250 10252 10252 10252 10252 10253 10253 10253 10254 10254 10255 10255 10256 10257 10257 10257 10257 10256 10256 10256 10256
10226 10226 10225 10224 10224 10223 10222 10222 10221 10219 10218 10217 10216 10215 10215 10214 10214 10212 10211 10210 10208 10207 10206 10206 10206 10204 10203 10203 10203 10202 10202 10203 10204 10205 10206 10207 10208 10208 10208 10210 10212 10213 10213 10215 10216 10218 10221 10223 10223 10224 10227 10229 10229 10229 10231 10232 10234 10236 10236 10237 10239 10240 10239 10240 10242 10243 10243 10243 10244 10245 10245 10245 10246 10247 10247 10248 10248 10249 10249 10250 10249 10249 10249 10249 10250
10216 10216 10215 10215 10214 10213 10212 10212 10211 10210 10208 10207 10207 10206 10205 10204 10203 10202 10200 10199 10198 10197 10197 10197 10196 10195 10194 10193 10192 10192 10192 10193 10195 10197 10198 10197 10197 10196 10197 10201 10204 10205 10204 10205 10207 10209 10212 10213 10213 10215 10218 10218 10217 10218 10221 10224 10225 10227 10229 10231 10232 10232 10232 10233 10234 10234 10234 10235 10236 10237 10238 10239 10240 10240 10240 10241 10242 10242 10242 10243 10243 10243 10243 10243 10244
10207 10207 10206 10205 10205 10204 10203 10202 10201 10201 10199 10199 10198 10197 10196 10195 10194 10192 10191 10190 10189 10188 10188 10188 10187 10185 10185 10184 10183 10183 10183 10185 10187 10189 10188 10186 10186 10186 10188 10190 10193 10195 10196 10197 10199 10200 10202 10204 10205 10206 10207 10207 10207 10209 10213 10215 10217 10219 10222 10225 10224 10223 10224 10226 10225 10225 10226 10228 10229 10231 10232 10232 10233 10234 10234 10235 10235 10236 10236 10237 10237 10237 10237 10237 10238
10198 10198 10198 10197 10197 10196 10194 10193 10193 10192 10191 10190 10189 10188 10187 10186 10185 10183 10182 10182 10181 10180 10180 10179 10178 10177 10176 10175 10175 10175 10175 10176 10178 10179 10178 10177 10177 10177 10179 10181 10184 10187 10189 10190 10191 10192 10194 10196 10197 10197 10196 10197 10199 10202 10205 10208 10209 10211 10213 10215 10216 10216 10218 10218 10217 10217 10218 10221 10223 10225 10225 10226 10227 10228 10228 10229 10229 10230 10230 10231 10231 10231 10231 10231 10232
10190 10190 10190 10189 10189 10188 10186 10185 10185 10184 10183 10182 10181 10180 10179 10178 10176 10175 10175 10174 10174 10173 10172 10171 10169 10168 10168 10168 10167 10167 10167 10168 10170 10170 10170 10169 10170 10170 10171 10173 10175 10178 10180 10182 10184 10185 10185 10187 10188 10188 10188 10190 10192 10195 10198 10200 10200 10201 10204 10208 10210 10210 10210 10210 10209 10210 10212 10214 10217 10218 10219 10220 10221 10222 10222 10222 10223 10224 10224 10225 10226 10226 10226 10225 10226
10183 10183 10182 10182 10181 10180 10179 10178 10178 10177 10176 10175 10174 10172 10171 10170 10169 10168 10168 10167 10166 10166 10165 10164 10162 10161 10161 10161 10161 10160 10160 10161 10162 10162 10162 10162 10162 10163 10164 10166 10167 10169 10171 10173 10175 10176 10177 10178 10179 10180 10182 10184 10185 10186 10189 10191 10192 10193 10197 10201 10203 10202 10201 10201 10201 10203 10205 10209 10211 10212 10213 10214 10215 10215 10216 10217 10217 10218 10219 10220 10220 10220 10220 10220 10220
10176 10175 10175 10175 10174 10173 10172 10171 10171 10170 10169 10168 10167 10165 10164 10164 10162 10161 10160 10160 10160 10159 10158 10158 10156 10155 10154 10155 10155 10154 10154 10154 10155 10155 10155 10156 10156 10156 10157 10158 10160 10162 10164 10165 10167 10168 10169 10171 10172 10174 10175 10177 10177 10179 10181 10184 10186 10187 10190 10193 10194 10194 10193 10193 10194 10196 10200 10203 10205 10206 10207 10208 10208 10209 10210 10211 10212 10212 10213 10214 10215 10215 10215 10214 10214
10169 10169 10168 10168 10167 10167 10166 10165 10164 10164 10163 10162 10161 10159 10157 10157 10156 10155 10153 10152 10152 10152 10152 10151 10151 10150 10149 10148 10148 10148 10148 10148 10149 10149 10149 10150 10150 10151 10151 10152 10154 10155 10157 10159 10160 10161 10163 10164 10166 10167 10168 10169 10171 10173 10176 10178 10179 10180 10182 10184 10185 10185 10185 10185 10187 10191 10194 10197 10199 10200 10201 10202 10202 10203 10204 10205 10206 10207 10208 10209 10209 10209 10209 10209 10209
10163 10162 10162 10161 10161 10160 10160 10159 10158 10157 10157 10156 10155 10153 10151 10150 10150 10149 10148 10146 10145 10145 10146 10146 10145 10145 10144 10142 10142 10141 10141 10142 10142 10143 10143 10144 10144 10145 10145 10146 10148 10149 10151 10152 10153 10154 10156 10157 10159 10160 10162 10164 10166 10168 10170 10170 10171 10172 10174 10176 10176 10176 10177 10178 10181 10185 10189 10191 10192 10193 10194 10196 10197 10198 10199 10200 10201 10201 10202 10203 10204 10204 10204 10204 10205
10157 10157 10156 10155 10155 10154 10154 10153 10152 10151 10151 10151 10150 10148 10146 10144 10144 10144 10143 10141 10139 10139 10139 10140 10140 10139 10138 10137 10136 10136 10135 10136 10136 10137 10137 10138 10139 10139 10140 10141 10143 10144 10145 10146 10146 10147 10148 10150 10152 10155 10156 10158 10159 10160 10162 10163 10163 10164 10166 10167 10168 10169 10170 10172 10175 10179 10183 10185 10186 10187 10189 10190 10191 10192 10193 10194 10195 10196 10197 10198 10198 10198 10199 10199 10200
10151 10151 10150 10149 10149 10149 10148 10148 10147 10146 10145 10145 10144 10143 10141 10140 10139 10138 10138 10137 10135 10134 10133 10134 10134 10134 10133 10132 10131 10131 10131 10131 10131 10131 10132 10133 10133 10134 10135 10136 10137 10138 10139 10139 10140 10141 10143 10145 10147 10148 10149 10150 10151 10153 10154 10155 10156 10157 10158 10160 10161 10163 10165 10167 10170 10174 10177 10179 10180 10182 10183 10184 10185 10186 10187 10188 10189 10190 10192 10192 10193 10193 10194 10194 10195
10145 10145 10144 10144 10143 10143 10142 10142 10141 10140 10140 10139 10138 10137 10136 10135 10134 10134 10133 10133 10131 10130 10129 10128 10129 10129 10129 10128 10127 10127 10126 10126 10126 10127 10127 10128 10129 10129 10130 10130 10131 10132 10133 10134 10135 10137 10138 10139 10140 10142 10143 10144 10146 10147 10148 10149 10150 10151 10152 10154 10156 10158 10161 10164 10167 10169 10171 10173 10174 10176 10177 10178 10179 10180 10182 10183 10184 10185 10187 10187 10188 10188 10189 10189 10190